Regional Weather Roundup
Issued by NWS Sterling, VA

Home | Current Version | Previous Version | Graphics & Text | Print | Product List | Glossary On
Versions: 1 2 3 4 5 6 7 8 9 10 11 12 13 14 15 16 17 18 19 20 21 22 23 24 25 26 27 28 29 30 31 32 33 34 35 36 37 38 39 40 41 42 43 44 45 46 47 48 49
000
ASUS41 KLWX 260410
RWRLWX

REGIONAL WEATHER ROUNDUP
NATIONAL WEATHER SERVICE BALTIMORE MD/WASHINGTON DC
1200 AM EDT SUN APR 26 2015

Note: "FAIR" indicates few or no clouds below 12,000 feet
with no significant weather and/or obstructions to visibility.
 TC=TEMPERATURE CELSIUS

 * =Non NWS site. Station does not report precipitation (e.g. rain,
    snow, etc.), thunder, or fog.

DCZ001-MDZ009-015-VAZ040>042-051-053>054-260500-
WASHINGTON METRO

CITY           SKY/WX    TMP DP  RH WIND       PRES   REMARKS
WASHINGTON NAT LGT RAIN  45  40  82 N6        29.74F
DULLES         LGT RAIN  40  38  93 N6        29.73F
ANDREWS AFB    LGT RAIN  41  41 100 N6        29.72F
FT BELVOIR     LGT RAIN  43  39  87 NW2       29.73F
QUANTICO       LGT RAIN  43  39  86 N7        29.75F
COLLEGE PARK*  CLOUDY    41  41 100 CALM      29.74F
LEESBURG*      LGT RAIN  41  41 100 CALM      29.74F
MANASSAS*      CLOUDY    41  41 100 NW3       29.74F
GAITHERSBURG*  CLOUDY    39  36  87 CALM      29.76F

$$

MDZ006>007-011-014-260500-
BALTIMORE METRO

CITY           SKY/WX    TMP DP  RH WIND       PRES   REMARKS
BWI AIRPORT    LGT RAIN  42  39  89 SW9       29.70F
MD SCIENCE CTR   N/A     45  38  76 MISG      29.72F
MARTIN STATE   CLOUDY    45  37  76 W3        29.74F
ANNAPOLIS      LGT RAIN  44  40  85 CALM      29.73F
FORT MEADE*    CLOUDY    41  37  87 SW3       29.75F

$$

MDZ012-015-019>023-260500-
MARYLAND EASTERN SHORE

CITY           SKY/WX    TMP DP  RH WIND       PRES   REMARKS
OCEAN CITY     LGT RAIN  44  42  93 N7        29.73F
SALISBURY      LGT RAIN  44  42  93 N6        29.72F
BAY BRIDGE AP* LGT RAIN N/A N/A N/A CALM      29.73F
CAMBRIDGE*     CLOUDY    45  41  87 N6        29.71F
EASTON*        LGT RAIN  45  45 100 NE7       29.77F

$$

MDZ017>025-260500-
SOUTHERN MARYLAND

CITY           SKY/WX    TMP DP  RH WIND       PRES   REMARKS
PATUXENT RIVER CLOUDY    45  41  86 NE10      29.72R
ST INIGOES     CLOUDY    46  43  89 VRB3      29.71F
LEONARDTOWN*   CLOUDY    43  41  93 CALM      29.74S

$$

MDZ003>005-260500-
NORTH CENTRAL MARYLAND

CITY           SKY/WX    TMP DP  RH WIND       PRES   REMARKS
FREDERICK*     CLOUDY    41  36  81 CALM      29.74F
HAGERSTOWN APT CLOUDY    42  34  73 S3        29.70F
WESTMINSTER*   CLOUDY    39  36  87 W3        29.71F

$$

MDZ501>502-260500-
WESTERN MARYLAND

CITY           SKY/WX    TMP DP  RH WIND       PRES   REMARKS
OAKLAND*       CLOUDY    32 N/A N/A SE12      29.63S HAZE    WCI  23
CUMBERLAND*    CLOUDY    41  41 100 SE3       29.75S

$$

VAZ025>031-260500-
SHENANDOAH VALLEY

CITY           SKY/WX    TMP DP  RH WIND       PRES   REMARKS
WINCHESTER*    DRIZZLE   41  36  81 CALM      29.72F
FRONT ROYAL*   CLOUDY    37  37 100 CALM      29.71F
LURAY*         CLOUDY    43  43 100 N5        29.70F
NEW MARKET*    CLOUDY    41  40  95 NE5       29.70F
STAUNTON*      CLOUDY    41  39  91 CALM      29.71F
WAYNESBORO*    CLOUDY    39  38  99 CALM      29.68F

$$

WVZ021-048>050-054>055-260500-
EASTERN WEST VIRGINIA PANHANDLE

CITY           SKY/WX    TMP DP  RH WIND       PRES   REMARKS
MARTINSBURG    CLOUDY    40  37  89 CALM      29.71F
PETERSBURG*    CLOUDY    38  33  81 CALM      29.72S

$$

VAZ036>039-050-260500-
CENTRAL FOOTHILLS

CITY           SKY/WX    TMP DP  RH WIND       PRES   REMARKS
CHARLOTTESVILL CLOUDY    41  39  93 NE7       29.72F
CULPEPER*      DRIZZLE   43  41  93 CALM      29.74F
ORANGE*        CLOUDY    41  41 100 N3        29.74F FOG
GORDONSVILLE*  CLOUDY    41  40  96 NE5       29.72S FOG
WARRENTON*     LGT RAIN  42  42  99 NE3       29.73S

$$

VAZ055>057-260500-
NORTH AND CENTRAL PIEDMONT

CITY           SKY/WX    TMP DP  RH WIND       PRES   REMARKS
FREDERICKSBRG* CLOUDY    43  43 100 N3        29.73F
STAFFORD*      DRIZZLE   41  32  70 CALM      29.78F

$$

NCZ024-NYZ072-PAZ021-071-VAZ022-071-260500-
OTHER REGIONAL OBSERVATIONS

CITY           SKY/WX    TMP DP  RH WIND       PRES   REMARKS
NEW YORK CITY  MOCLDY    52  27  38 NE10G17   29.72S
PHILADELPHIA   CLOUDY    50  36  58 SW9       29.72S
PITTSBURGH     MOCLDY    49  21  33 N9        29.66R
ROANOKE        LGT RAIN  42  41  96 E8        29.66F
RICHMOND       CLOUDY    46  43  89 N7        29.71R
RALEIGH        FOG       49  48  97 N7        29.66S VSB 1/2

$$

ANZ530>537-260500-
MARINE OBSERVATIONS

STATION/POSITION TIME  TEMP    WIND        PRES
                       AIR SEA DIR/SP/G
                 (UTC) (F)     (DEG/KT/KT) (MB)
THOMAS PT LIGHT  0400   45 52   20/  5/  6 1007.5F
BALT KEY BRIDGE  0300   44     250/  7/  9 1007.5R
COVE POINT       0300   45      20/  8/ 10 1008.0R
LEWISETTA        0300   47 56              1006.1F
SOLOMONS ISLAND  0312      54                N/A
PINEY POINT      0300           50/  4/  5   N/A

$$




USA.gov is the U.S. government's official web portal to all federal, state and local government web resources and services.